Regional Weather Roundup
Issued by NWS Kansas City/Pleasant Hill, MO

Home | Current Version | Previous Version | Text Only | Print | Product List | Glossary On
Versions: 1 2 3 4 5 6 7 8 9 10 11 12 13 14 15 16 17 18 19 20 21 22 23 24 25 26 27 28
000
ASUS43 KEAX 270310
RWREAX

WEATHER ROUNDUP FOR EASTERN KANSAS AND NORTHWEST MISSOURI
NATIONAL WEATHER SERVICE KANSAS CITY/PLEASANT HILL MO
1000 PM CDT WED APR 26 2017

KSZ040-057-103>105-MOZ028-029-037-043-270400-
...KANSAS CITY METROPOLITAN AREA...

CITY           SKY/WX    TMP DP  RH WIND       PRES   REMARKS
K.C. INTL      CLOUDY    44  35  70 NW8       29.66S
K.C. DOWNTOWN  LGT RAIN  45  38  76 NW10      29.66R
LEES SUMMIT    CLOUDY    45  38  76 NW9       29.65S
OLATHE - IXD   CLOUDY    45  36  70 NW10      29.68R
OLATHE - OJC   CLOUDY    44  37  76 NW14      29.66R
LAWRENCE       CLOUDY    46  37  71 NW12      29.69R

$$

MOZ001>008-011>017-020>025-030>033-038>040-044>046-053-054-270400-
...NORTHERN AND CENTRAL MISSOURI...

CITY           SKY/WX    TMP DP  RH WIND       PRES   REMARKS
ST. JOSEPH     CLOUDY    44  36  73 NW12      29.68R
MOSBY          CLOUDY    45  36  70 NW10      29.65
WHITEMAN AFB   DRIZZLE   44  44 100 NW10      29.62R FOG
CLINTON        LGT RAIN  45  45 100 NW7       29.64R
SEDALIA        LGT RAIN  46  46 100 NW12      29.62R FOG
WARSAW         NOT AVBL
CHILLICOTHE      N/A     45  39  79 VRB7      29.64R
KIRKSVILLE     CLOUDY    45  43  93 W10       29.59R

$$

MOZ041-047>049-056>058-063>065-088>090-097-270400-
...EASTERN AND SOUTHERN MISSOURI...

CITY           SKY/WX    TMP DP  RH WIND       PRES   REMARKS
ST. LOUIS INTL CLOUDY    62  58  86 S14       29.45F
SPIRIT OF STL  RAIN      55  54  96 W15       29.45R FOG
COLUMBIA       LGT RAIN  47  46  97 W10       29.56R
JEFFERSON CITY RAIN      49  45  86 NW13      29.56R FOG
ROLLA          LGT RAIN  45  45 100 W13       29.53R
OSAGE BEACH    LGT RAIN  46  45  96 W10G17    29.61R
SPRINGFIELD    CLOUDY    45  43  93 NW10      29.64R
BRANSON        CLOUDY    45  45 100 NW8       29.67R
JOPLIN         CLOUDY    47  45  93 W8        29.69R
WEST PLAINS    LGT RAIN  47  45  93 W8G18     29.58R

$$

IAZ060-094-KSZ022-034>040-054-083-096-NEZ052-066-093-270400-
...KANSAS...SOUTHEAST NEBRASKA AND IOWA...

CITY           SKY/WX    TMP DP  RH WIND       PRES   REMARKS
TOPEKA         CLOUDY    46  37  71 NW9       29.70R
MANHATTAN      CLOUDY    48  35  60 N5        29.72R
EMPORIA        CLOUDY    47  37  68 NW8       29.70R
CHANUTE        PTCLDY    46  39  76 NW6       29.68S
WICHITA        CLEAR     48  38  68 N6        29.72R
OMAHA          CLOUDY    42  31  64 NW13      29.69R
LINCOLN        CLOUDY    44  32  62 N8        29.73R
FALLS CITY     CLOUDY    43  33  68 NW14G21   29.69R
LAMONI         CLOUDY    42  36  79 NW17G24   29.61R WCI  34
DES MOINES     CLOUDY    43  36  76 NW16G24   29.61R

$$





USA.gov is the U.S. government's official web portal to all federal, state and local government web resources and services.